Location: Amsterdam
(30.7274°N, 84.4357°W)
Time: 02:23:22
(UTC+00:00)

Transit 2A Rocket - Pass Details

Date: 23 February 2026
Orbit: 583 x 900 km, 66.7° (Epoch: 12 March)

Event Time Altitude Azimuth Distance (km) Brightness Sun altitude
Rises 18:09:43 0° 155° (SSE) 3,429 8.9 49.4°
Reaches altitude 10° 18:13:39 10° 128° (SE) 2,538 8.1 49.3°
Maximum altitude 18:16:13 13° 102° (ESE) 2,343 7.7 49.2°
Drops below altitude 10° 18:18:49 10° 76° (ENE) 2,570 7.7 49.1°
Sets 18:22:49 0° 51° (NE) 3,515 8.1 48.9°
